Temperature
-2 -2 -2 -2 -2 -2 -2 -2 -2 -2 -2 -2 -1 -2 -2 -1 -1 -1 -1 -1 -1 -1 -0 -0 -0 -0 -0 -0 -0 -0 -0 -0 -0 0 0 0 0 0 1 0 0 0 1
-3 -3 -3 -3 -3 -3 -3 -3 -3 -3 -3 -3 -2 -2 -2 -2 -2 -2 -2 -2 -1 -1 -1 -1 -1 -1 -1 -1 -1 -1 -1 -1 -1 -1 -0 -0 -0 0 0 -0 -0 -0 -0
-4 -4 -4 -4 -4 -4 -4 -4 -4 -4 -4 -3 -3 -3 -3 -3 -3 -3 -2 -2 -2 -2 -2 -2 -2 -2 -2 -2 -2 -1 -1 -1 -1 -1 -1 -1 -1 -1 -1 -1 -1 -1 -1
-5 -5 -4 -4 -4 -5 -5 -5 -5 -5 -4 -4 -4 -4 -4 -4 -3 -3 -3 -3 -3 -3 -3 -3 -3 -3 -2 -2 -2 -2 -2 -2 -2 -2 -2 -2 -2 -1 -1 -1 -1 -1 -1
-5 -5 -5 -5 -5 -5 -5 -5 -5 -5 -5 -5 -5 -5 -4 -4 -4 -4 -4 -4 -4 -3 -3 -3 -3 -3 -3 -3 -3 -3 -3 -3 -3 -3 -2 -2 -2 -2 -2 -2 -2 -2 -2
-6 -6 -6 -6 -6 -6 -6 -6 -6 -6 -6 -6 -5 -5 -5 -5 -5 -5 -5 -5 -4 -4 -4 -4 -4 -4 -4 -4 -3 -3 -3 -3 -3 -3 -3 -3 -2 -3 -3 -3 -3 -3 -3
-7 -7 -7 -7 -7 -6 -6 -6 -6 -6 -6 -6 -6 -6 -6 -5 -5 -5 -5 -5 -5 -5 -5 -4 -4 -4 -4 -4 -4 -4 -4 -4 -3 -3 -3 -3 -3 -3 -3 -3 -4 -4 -4
-7 -7 -7 -7 -7 -7 -7 -7 -7 -7 -7 -7 -6 -6 -6 -6 -6 -6 -6 -6 -6 -5 -5 -5 -5 -5 -5 -5 -5 -4 -4 -4 -4 -4 -3 -3 -3 -3 -3 -4 -4 -4 -4
-8 -8 -8 -8 -8 -8 -8 -8 -8 -8 -7 -7 -7 -7 -7 -6 -6 -6 -6 -6 -6 -6 -6 -6 -5 -5 -5 -5 -5 -5 -5 -5 -5 -4 -4 -4 -4 -4 -4 -4 -5 -5 -5
-9 -9 -9 -9 -9 -9 -8 -8 -9 -8 -8 -8 -8 -8 -8 -7 -7 -7 -7 -7 -7 -6 -6 -6 -6 -6 -6 -6 -6 -6 -5 -5 -5 -5 -5 -5 -4 -5 -5 -4 -5 -5 -5
-9 -9 -9 -9 -9 -9 -9 -9 -9 -9 -9 -9 -9 -8 -8 -8 -8 -8 -7 -7 -7 -7 -7 -7 -6 -6 -6 -6 -6 -6 -6 -5 -6 -6 -5 -5 -5 -5 -5 -5 -5 -5 -5
-10 -10 -10 -10 -10 -10 -10 -10 -10 -10 -10 -10 -10 -9 -9 -9 -9 -8 -8 -8 -8 -8 -7 -7 -7 -7 -7 -7 -7 -6 -6 -6 -6 -6 -6 -6 -6 -6 -6 -6 -6 -6 -6
-11 -11 -11 -11 -11 -11 -11 -11 -11 -11 -11 -11 -11 -10 -10 -10 -9 -9 -9 -9 -8 -8 -8 -8 -8 -7 -7 -7 -7 -7 -7 -7 -7 -7 -7 -6 -6 -6 -6 -6 -6 -6 -6
-12 -12 -12 -11 -11 -11 -11 -11 -12 -12 -12 -11 -11 -11 -11 -10 -10 -10 -9 -9 -9 -9 -9 -8 -8 -8 -8 -8 -8 -8 -8 -7 -7 -7 -7 -7 -7 -7 -7 -7 -7 -7 -7
-12 -12 -12 -12 -12 -12 -12 -12 -12 -12 -12 -12 -12 -12 -11 -11 -11 -10 -10 -10 -10 -9 -9 -9 -9 -9 -9 -9 -9 -8 -8 -8 -8 -8 -8 -8 -8 -8 -8 -8 -8 -8 -8
-13 -13 -13 -13 -13 -13 -13 -13 -13 -13 -12 -12 -12 -12 -12 -12 -11 -11 -11 -11 -10 -10 -10 -10 -10 -10 -10 -10 -9 -9 -9 -9 -9 -9 -9 -9 -9 -9 -9 -8 -8 -8 -8
-14 -14 -14 -14 -14 -14 -14 -14 -13 -13 -13 -13 -13 -13 -13 -12 -12 -12 -12 -11 -11 -11 -11 -11 -11 -11 -11 -10 -10 -10 -10 -10 -10 -9 -9 -9 -9 -9 -9 -9 -9 -9 -9
-14 -14 -14 -14 -14 -14 -14 -14 -14 -14 -14 -13 -13 -13 -13 -13 -13 -13 -12 -12 -12 -12 -12 -12 -12 -12 -11 -11 -11 -11 -10 -10 -10 -10 -10 -10 -10 -10 -10 -9 -9 -9 -9
-15 -15 -15 -15 -15 -15 -15 -15 -15 -15 -15 -14 -14 -14 -14 -14 -14 -13 -13 -13 -13 -13 -13 -13 -12 -12 -12 -12 -12 -11 -11 -11 -10 -10 -10 -10 -10 -10 -10 -10 -10 -10 -10
-15 -15 -15 -15 -15 -15 -15 -15 -15 -15 -15 -15 -15 -15 -14 -14 -14 -14 -14 -14 -14 -14 -14 -14 -13 -13 -13 -13 -12 -12 -12 -11 -11 -11 -11 -11 -10 -10 -10 -10 -10 -10 -10
-16 -16 -16 -16 -16 -16 -16 -16 -16 -16 -16 -15 -15 -15 -15 -15 -15 -15 -15 -15 -14 -14 -14 -14 -14 -14 -13 -13 -13 -13 -12 -12 -12 -11 -11 -11 -11 -11 -11 -11 -11 -11 -11
-16 -16 -16 -16 -16 -16 -16 -16 -16 -16 -16 -16 -16 -16 -16 -16 -15 -15 -15 -15 -15 -15 -15 -15 -15 -14 -14 -14 -14 -13 -13 -13 -12 -12 -12 -12 -12 -11 -11 -11 -11 -11 -11
-17 -17 -17 -17 -17 -17 -17 -17 -17 -17 -17 -16 -16 -16 -16 -16 -16 -16 -16 -16 -16 -15 -15 -15 -15 -15 -15 -14 -14 -14 -14 -13 -13 -12 -12 -12 -12 -12 -12 -12 -12 -12 -12
-17 -17 -17 -17 -17 -17 -17 -17 -17 -17 -17 -17 -17 -17 -16 -16 -16 -16 -16 -16 -16 -16 -16 -16 -15 -15 -15 -15 -15 -14 -14 -14 -13 -13 -13 -13 -13 -12 -12 -12 -12 -12 -12
-18 -18 -18 -18 -18 -18 -18 -18 -18 -17 -17 -17 -17 -17 -17 -17 -17 -17 -17 -16 -16 -16 -16 -16 -16 -15 -15 -15 -15 -14 -14 -14 -14 -13 -13 -13 -13 -13 -13 -13 -13 -13 -13
-18 -18 -18 -18 -18 -18 -18 -18 -18 -18 -18 -18 -18 -17 -17 -17 -17 -17 -17 -17 -17 -16 -16 -16 -16 -16 -15 -15 -15 -15 -15 -14 -14 -14 -14 -14 -14 -14 -13 -13 -13 -13 -13
Wind_Speed
1 1 1 1 1 1 2 2 2 3 3 3 3 3 3 3 3 3 4 4 4 4 4 5 5 4 4 4 4 5 5 5 6 4 3 3 4 5 5 5 6 7 7
1 1 1 1 1 1 2 3 3 3 3 3 3 3 4 4 4 4 5 5 5 5 5 5 6 5 5 5 5 6 6 6 6 6 4 4 5 5 5 4 5 6 6
1 1 1 1 2 2 2 3 3 3 3 3 3 4 4 5 5 5 5 5 6 6 6 6 6 6 7 5 6 6 6 6 5 6 5 4 4 3 3 3 4 5 5
1 1 2 2 2 3 3 3 3 3 3 4 4 5 5 5 6 6 6 6 6 6 6 7 7 7 8 7 7 7 6 6 6 6 6 5 4 3 3 3 3 4 4
1 2 2 3 2 3 3 3 3 3 4 4 4 5 5 5 5 6 6 6 6 6 6 7 7 9 10 9 7 6 7 6 6 6 6 5 5 5 5 4 5 3 4
2 2 3 3 3 3 3 3 3 4 4 4 4 5 5 5 8 10 8 6 7 7 7 7 8 9 11 12 12 12 11 9 9 8 7 8 8 7 5 5 5 4 4
2 2 3 3 3 4 4 4 4 4 4 4 4 5 5 7 10 11 11 7 6 7 7 7 7 7 9 8 10 12 12 14 14 10 10 10 9 9 8 7 7 7 6
3 3 3 3 4 4 4 4 4 4 4 4 5 5 5 7 10 11 11 7 6 7 7 7 7 7 7 7 7 8 8 10 11 10 10 11 10 10 10 9 8 5 4
3 3 4 4 4 4 4 5 5 4 4 4 5 5 5 7 10 11 10 5 6 7 7 8 8 8 11 11 8 7 8 8 11 13 14 13 14 13 11 6 6 5 5
4 5 4 4 4 4 4 5 5 4 5 5 5 5 5 6 10 11 10 5 6 6 6 7 11 11 12 13 8 8 9 8 7 8 8 9 10 11 13 11 9 7 5
5 5 4 4 4 4 4 4 4 5 5 5 6 5 5 7 10 11 10 5 5 6 6 6 7 12 13 14 11 8 10 8 6 7 6 5 5 6 8 8 9 8 7
4 5 4 4 4 4 4 4 4 4 4 5 5 6 5 6 9 10 11 10 8 6 6 6 7 12 13 13 11 10 11 9 4 5 5 5 5 5 5 6 7 8 8
4 5 5 5 4 4 3 4 4 4 4 4 5 5 6 6 7 12 12 12 11 7 6 9 11 12 11 9 11 12 8 5 4 5 6 6 5 5 5 4 5 5 4
4 5 5 4 4 4 3 3 3 4 4 5 5 5 6 6 6 6 6 7 9 8 6 8 10 10 8 7 7 6 4 4 5 5 5 5 4 4 5 5 5 4 3
4 4 5 4 4 4 4 4 5 4 5 5 5 5 6 6 8 11 8 6 5 5 5 3 3 3 4 3 3 4 3 3 4 4 4 4 4 5 5 5 4 4 5
4 4 4 4 4 4 4 5 8 8 10 11 10 9 8 10 13 14 14 13 11 9 5 3 3 4 4 4 4 3 3 4 4 4 4 5 5 5 5 5 5 5 5
4 4 4 4 4 4 4 5 6 8 10 10 12 12 12 13 13 13 13 12 10 7 4 3 3 3 3 3 3 4 4 4 4 4 5 5 5 5 5 5 5 5 5
4 5 5 4 4 4 4 4 5 5 7 7 9 12 13 13 13 13 12 8 5 5 3 3 3 3 3 3 3 3 3 3 3 4 4 5 5 5 6 6 6 6 5
4 4 4 3 4 4 4 4 4 5 6 6 7 8 12 12 12 12 9 4 4 4 4 4 4 3 3 3 3 3 3 3 3 3 4 4 4 5 5 6 6 7 6
4 7 5 4 3 4 4 4 5 5 5 6 6 7 7 7 6 6 5 4 4 4 4 4 4 4 4 3 3 3 3 3 3 3 3 3 4 4 5 6 6 6 5
4 5 7 5 3 4 4 4 5 5 5 6 6 8 10 6 5 5 5 4 4 4 4 4 4 4 4 3 3 3 4 3 3 2 3 3 3 3 3 3 4 5 4
3 4 3 4 4 4 4 4 5 5 6 7 6 8 11 6 4 5 5 5 4 4 4 4 4 4 4 4 4 4 3 3 3 3 3 3 3 3 3 3 3 3 4
3 4 4 4 4 6 6 4 5 5 6 6 6 6 6 5 5 5 5 5 4 4 5 4 4 4 5 6 6 5 4 4 4 3 3 3 3 3 3 4 4 4 4
3 4 4 4 4 4 5 5 5 6 6 6 6 6 5 5 5 6 5 5 5 5 6 6 6 6 8 7 7 7 7 8 7 6 5 4 4 4 3 4 4 4 4
3 3 4 4 4 5 5 5 6 6 6 6 6 6 6 6 6 6 5 5 5 6 7 7 7 8 9 10 9 9 9 10 9 7 6 5 4 5 4 4 4 4 4
3 3 4 4 4 5 5 6 6 6 6 7 6 6 6 6 6 6 6 5 6 6 7 7 9 10 10 10 10 11 11 11 10 9 7 5 4 4 5 4 5 5 5
Wind_Direction
274 269 271 278 269 258 257 262 271 281 278 267 265 266 271 266 252 233 247 243 235 240 239 231 234 234 237 235 223 216 215 214 234 252 245 228 218 223 239 234 236 239 243
296 294 285 288 285 271 277 278 280 280 278 273 269 262 259 260 251 239 243 246 236 239 242 240 240 236 234 239 228 224 222 218 222 239 245 226 228 222 223 229 237 237 239
311 303 304 302 300 289 287 287 282 280 281 277 268 260 260 258 255 246 239 246 241 239 238 240 243 235 239 240 236 229 228 227 222 226 236 226 226 223 215 232 239 239 240
311 299 301 301 297 296 296 296 288 282 275 271 271 266 264 261 259 252 245 251 247 244 241 239 239 234 235 234 237 231 224 224 222 221 227 223 223 209 202 218 236 226 242
305 305 307 311 314 314 312 307 299 295 288 279 276 274 270 261 256 255 244 248 245 246 246 244 244 242 239 236 238 234 224 221 220 223 224 227 222 207 214 211 230 241 239
315 316 323 327 328 325 318 312 310 309 304 298 289 281 275 270 266 263 254 247 245 243 247 249 249 249 247 248 249 245 234 224 219 221 226 223 224 216 213 213 219 229 248
324 328 332 328 325 322 320 320 311 307 309 303 294 286 279 280 278 271 263 253 245 245 245 247 252 250 250 247 251 252 249 243 233 222 223 223 219 210 204 213 216 225 236
327 330 333 328 321 319 317 313 306 304 302 297 293 286 282 282 284 278 271 261 249 245 246 244 245 249 247 247 245 248 248 245 242 234 226 225 220 212 206 210 216 226 235
330 324 323 319 316 318 315 308 307 308 306 299 293 292 291 292 291 285 279 263 257 251 250 249 247 244 251 250 245 245 252 256 254 249 242 235 230 224 213 195 195 206 230
317 313 312 311 309 307 305 305 308 305 302 304 301 299 295 294 293 289 281 264 260 258 256 252 252 253 252 251 244 239 243 249 246 251 251 243 231 222 215 202 193 202 215
315 316 314 312 308 303 305 308 311 312 314 311 305 303 298 295 297 293 288 273 258 257 258 255 254 259 259 256 253 243 245 244 232 228 230 227 219 214 215 216 208 202 209
322 318 314 314 312 315 317 314 313 313 312 310 308 307 301 297 301 299 295 291 282 260 259 259 260 264 264 262 259 256 255 247 224 214 214 216 213 212 214 219 221 226 227
325 318 311 312 310 312 309 309 313 314 311 308 308 308 308 309 305 305 299 297 294 284 269 268 268 266 266 265 261 257 251 230 216 221 217 217 211 206 207 216 221 222 232
314 312 310 311 312 313 307 302 302 302 305 306 307 305 306 308 309 308 304 297 291 289 282 276 275 274 272 269 268 262 241 223 219 227 224 216 197 196 206 203 207 199 210
307 308 311 310 305 303 304 295 295 283 291 299 295 295 301 302 307 312 309 300 291 279 280 269 271 267 259 259 258 254 239 232 235 225 219 215 208 208 213 203 200 199 209
308 311 311 312 310 310 308 310 306 307 307 307 309 309 300 303 308 311 311 309 305 299 291 276 266 261 258 254 251 251 243 237 231 225 219 216 214 213 216 208 202 206 213
289 297 302 309 310 310 309 310 313 316 315 316 317 317 316 317 316 316 314 312 315 319 312 303 292 283 277 274 262 251 246 243 237 225 221 218 219 218 215 212 209 210 216
289 293 299 297 300 301 301 301 303 309 315 316 318 319 321 320 321 323 321 321 321 324 316 305 299 297 292 285 280 268 258 250 240 233 224 218 216 215 217 215 209 207 213
292 294 294 295 298 298 300 300 299 300 302 307 313 317 321 320 320 323 329 329 320 316 314 305 300 295 292 292 290 280 263 254 249 241 230 220 217 216 220 214 210 214 213
289 297 303 299 298 302 301 302 302 301 302 304 307 312 318 321 320 320 322 323 316 311 311 310 307 304 301 296 294 291 282 269 254 246 246 230 219 219 220 214 209 206 211
290 294 301 302 297 296 298 298 298 299 301 303 303 307 315 317 313 313 314 314 308 302 303 305 307 309 306 301 295 290 287 282 268 258 254 241 221 218 219 213 208 203 197
283 282 285 289 292 292 294 293 295 296 298 300 304 308 313 319 316 312 308 305 302 298 296 296 296 297 300 297 291 285 282 283 280 272 262 251 235 222 211 206 203 200 192
281 281 284 286 286 291 298 296 294 293 295 298 302 304 305 305 305 305 304 304 303 298 295 291 293 294 293 287 281 276 271 271 268 260 252 247 237 222 210 208 203 201 203
276 276 280 284 286 287 289 293 293 294 296 298 300 299 293 294 296 297 298 300 298 293 291 287 285 287 291 291 286 278 271 270 263 249 239 237 234 223 214 212 212 209 208
272 276 280 282 284 285 288 290 292 294 296 297 298 298 294 290 291 293 293 293 290 288 287 285 283 282 283 283 282 281 284 285 278 259 238 230 230 219 213 214 214 212 210
276 279 280 281 280 282 285 288 290 292 293 295 296 295 292 288 285 286 289 289 289 288 285 284 283 282 282 281 283 284 283 281 278 272 251 231 226 222 214 217 212 210 209
Height
1469 1469 1470 1471 1471 1472 1472 1473 1473 1474 1474 1475 1475 1476 1477 1478 1479 1480 1481 1482 1483 1485 1486 1487 1488 1490 1491 1492 1494 1494 1495 1497 1496 1496 1499 1501 1503 1505 1506 1507 1509 1510 1511
1466 1466 1466 1467 1467 1468 1468 1468 1469 1469 1470 1470 1471 1472 1472 1473 1474 1475 1476 1476 1478 1478 1479 1481 1482 1483 1485 1486 1487 1488 1489 1490 1491 1490 1492 1494 1496 1498 1499 1501 1502 1503 1505
1463 1463 1463 1463 1463 1464 1464 1464 1464 1465 1465 1466 1466 1466 1467 1467 1468 1469 1470 1471 1472 1473 1474 1474 1475 1477 1478 1479 1481 1482 1483 1484 1484 1485 1485 1488 1489 1491 1493 1495 1496 1497 1498
1460 1460 1459 1460 1460 1460 1460 1460 1460 1460 1460 1461 1461 1461 1462 1462 1463 1463 1464 1465 1466 1467 1467 1468 1469 1470 1471 1473 1474 1475 1476 1477 1478 1479 1479 1481 1483 1485 1487 1488 1489 1490 1491
1456 1456 1456 1456 1456 1456 1455 1455 1455 1455 1455 1455 1455 1456 1456 1457 1457 1458 1459 1459 1460 1460 1461 1462 1463 1464 1465 1466 1467 1468 1469 1470 1471 1472 1473 1474 1476 1477 1479 1481 1482 1483 1484
1453 1453 1453 1452 1452 1452 1451 1451 1450 1450 1450 1450 1450 1450 1450 1451 1451 1452 1453 1453 1454 1454 1454 1455 1456 1457 1458 1459 1460 1461 1463 1463 1464 1465 1465 1466 1468 1470 1473 1474 1476 1477 1477
1450 1450 1449 1449 1449 1448 1448 1447 1446 1445 1445 1445 1445 1445 1444 1444 1445 1446 1447 1448 1448 1448 1448 1449 1449 1450 1451 1452 1452 1454 1455 1456 1457 1458 1458 1459 1461 1463 1465 1467 1468 1469 1470
1447 1446 1446 1445 1445 1444 1444 1442 1442 1441 1440 1440 1439 1439 1438 1439 1439 1440 1441 1441 1441 1442 1442 1442 1443 1443 1444 1445 1445 1446 1447 1448 1449 1450 1451 1452 1454 1456 1458 1459 1461 1463 1464
1443 1443 1442 1442 1441 1440 1439 1438 1437 1436 1435 1435 1435 1434 1433 1433 1434 1434 1435 1435 1435 1435 1435 1436 1436 1437 1437 1438 1439 1438 1439 1440 1442 1443 1444 1445 1447 1449 1451 1453 1454 1455 1456
1440 1440 1439 1438 1437 1436 1435 1434 1433 1432 1431 1431 1430 1429 1428 1428 1428 1428 1428 1429 1428 1428 1429 1429 1430 1430 1431 1431 1432 1432 1432 1432 1434 1435 1436 1437 1439 1441 1443 1444 1446 1448 1448
1437 1436 1436 1435 1434 1433 1432 1431 1430 1429 1427 1426 1425 1425 1424 1423 1422 1422 1422 1423 1422 1422 1422 1422 1423 1423 1424 1425 1425 1425 1425 1426 1427 1427 1428 1429 1431 1433 1435 1437 1439 1440 1441
1434 1433 1432 1432 1431 1430 1429 1428 1426 1425 1423 1422 1421 1420 1420 1419 1418 1417 1417 1417 1417 1416 1416 1416 1416 1417 1417 1418 1419 1419 1419 1420 1420 1421 1421 1422 1424 1426 1428 1430 1432 1433 1434
1431 1430 1429 1428 1427 1426 1425 1424 1423 1421 1420 1419 1417 1416 1415 1414 1413 1413 1412 1411 1410 1410 1410 1410 1410 1410 1411 1411 1411 1412 1413 1413 1413 1414 1414 1416 1418 1420 1421 1423 1424 1426 1428
1428 1427 1426 1425 1423 1422 1422 1421 1419 1418 1417 1416 1414 1412 1411 1410 1409 1408 1406 1405 1405 1404 1404 1404 1404 1404 1404 1404 1405 1405 1405 1406 1407 1408 1408 1410 1411 1413 1414 1416 1417 1419 1420
1425 1424 1423 1421 1420 1419 1418 1417 1416 1415 1415 1413 1411 1410 1408 1405 1405 1404 1403 1401 1401 1400 1399 1398 1398 1398 1398 1397 1398 1398 1399 1399 1400 1401 1402 1403 1404 1406 1407 1409 1411 1412 1413
1422 1421 1420 1419 1417 1416 1414 1413 1412 1412 1411 1409 1408 1407 1404 1403 1401 1400 1399 1398 1396 1396 1395 1393 1392 1392 1392 1392 1392 1392 1393 1393 1394 1395 1396 1397 1398 1399 1400 1402 1404 1405 1406
1420 1418 1417 1416 1415 1413 1411 1410 1408 1407 1407 1405 1404 1402 1400 1398 1396 1395 1394 1392 1391 1391 1389 1388 1387 1387 1387 1387 1386 1387 1387 1388 1389 1390 1390 1391 1392 1393 1394 1395 1397 1398 1400
1417 1416 1414 1413 1412 1410 1409 1407 1405 1403 1401 1399 1399 1397 1395 1394 1392 1390 1389 1388 1386 1385 1384 1383 1383 1382 1382 1382 1381 1381 1382 1382 1383 1383 1384 1385 1386 1387 1388 1389 1391 1392 1394
1414 1413 1411 1410 1409 1407 1406 1404 1402 1400 1398 1396 1394 1392 1391 1389 1387 1386 1384 1383 1381 1381 1380 1379 1378 1378 1377 1377 1377 1377 1377 1377 1377 1378 1379 1380 1380 1381 1382 1383 1385 1386 1388
1411 1410 1408 1407 1405 1404 1402 1400 1399 1397 1395 1392 1390 1388 1386 1384 1382 1381 1380 1378 1378 1377 1376 1375 1375 1374 1373 1373 1372 1372 1372 1372 1372 1372 1373 1374 1374 1375 1376 1378 1379 1380 1382
1408 1406 1405 1404 1402 1400 1399 1397 1395 1394 1391 1389 1387 1385 1384 1381 1379 1377 1376 1374 1374 1373 1372 1372 1371 1370 1370 1369 1369 1368 1368 1367 1367 1368 1368 1369 1370 1370 1371 1373 1374 1375 1377
1404 1403 1402 1400 1399 1397 1396 1394 1392 1390 1388 1386 1383 1382 1380 1378 1376 1374 1372 1371 1370 1370 1369 1368 1367 1367 1366 1365 1365 1364 1363 1363 1363 1363 1364 1365 1365 1366 1367 1368 1370 1371 1372
1401 1399 1398 1397 1395 1394 1392 1390 1388 1386 1384 1382 1380 1378 1376 1374 1372 1371 1369 1368 1367 1366 1365 1364 1363 1362 1362 1361 1361 1360 1359 1359 1359 1360 1360 1360 1361 1362 1363 1364 1365 1367 1368
1398 1396 1395 1393 1392 1390 1388 1386 1385 1383 1381 1378 1376 1374 1372 1371 1369 1368 1366 1364 1363 1362 1361 1360 1359 1358 1357 1357 1356 1356 1355 1355 1355 1356 1356 1356 1357 1358 1359 1360 1361 1362 1364
1394 1393 1391 1390 1388 1386 1384 1382 1381 1379 1377 1375 1372 1370 1368 1367 1365 1364 1362 1361 1359 1358 1357 1355 1354 1353 1353 1352 1351 1351 1351 1351 1351 1351 1352 1352 1352 1353 1354 1356 1357 1358 1360
1391 1389 1387 1386 1384 1382 1380 1378 1377 1375 1373 1371 1368 1366 1365 1363 1361 1360 1358 1357 1355 1353 1352 1351 1350 1349 1348 1347 1347 1346 1346 1346 1346 1347 1348 1348 1348 1349 1350 1351 1352 1354 1355